Regional Weather Roundup
Issued by NWS

Home | Current Version | Previous Version | Text Only | Print | Product List | Glossary On
Versions: 1 2 3 4 5 6 7 8 9 10 11 12 13 14 15 16 17 18 19 20 21 22 23 24 25 26 27 28 29 30 31 32 33 34 35 36 37 38 39 40 41 42 43 44 45 46 47 48 49 50
000
ASUS43 KTOP 210959
RWRKS

WEATHER ROUNDUP FOR KANSAS
NATIONAL WEATHER SERVICE GOODLAND KS
500 AM CDT TUE OCT 21 2014

NOTE:  "FAIR" INDICATES FEW OR NO CLOUDS BELOW 12,000 FEET WITH NO
SIGNIFICANT WEATHER AND/OR OBSTRUCTIONS TO VISIBILITY.

KSZ001>006-013>018-027>032-041>047-211100-
NORTHWEST KANSAS

CITY           SKY/WX    TMP DP  RH WIND       PRES   REMARKS
GOODLAND       CLEAR     42  39  89 S8        30.08F
HAYS           CLEAR     43  36  75 CALM      30.08S
HILL CITY      CLEAR     42  38  85 NW3       30.08S
RUSSELL        CLEAR     49  42  77 S8        30.07R
$$

KSZ061>065-074>080-084>089-211100-
SOUTHWEST KANSAS

CITY           SKY/WX    TMP DP  RH WIND       PRES   REMARKS
DODGE CITY     CLEAR     52  47  83 SE7       30.08S
ELKHART          N/A     54  51  90 SW3         N/A
GARDEN CITY    CLEAR     50  45  83 E8        30.06F
GREAT BEND     CLEAR     45  39  81 CALM      30.09R
LIBERAL        CLEAR     55  48  76 SE5       30.08R
$$

KSZ066>073-081>083-090>101-211100-
SOUTHEAST KANSAS

CITY           SKY/WX    TMP DP  RH WIND       PRES   REMARKS
CHANUTE        CLEAR     49  48  97 CALM      30.08S
COFFEYVILLE    PTCLDY    50  49  96 CALM      30.08R
HUTCHINSON     CLEAR     48  45  89 E3        30.08S
NEWTON         CLEAR     52  41  66 SE7       30.11R
PARSONS        CLEAR     48  47  96 CALM      30.09R
WICHITA INTL   PTCLDY    54  48  80 NE5       30.07S
WICHITA JABRA  CLEAR     49  45  86 CALM      30.08R
WINFIELD       CLEAR     54  53  97 E3        30.08R
$$

KSZ007>012-019>026-033>040-048>060-102>105-211100-
NORTHEAST KANSAS

CITY           SKY/WX    TMP DP  RH WIND       PRES   REMARKS
CONCORDIA      CLEAR     46  43  89 CALM      30.08S
EMPORIA        CLEAR     46  44  93 NW3       30.09S
LAWRENCE       CLEAR     36  35  96 CALM      30.10R
MANHATTAN      CLEAR     40  39  97 CALM      30.10R
OLATHE IND     CLEAR     46  42  86 CALM      30.10R
OLATHE EXE     CLEAR     50  43  77 CALM      30.09R
SALINA         CLEAR     46  42  86 N3        30.08S
TOPEKA BILLARD FOG       42  41  96 CALM      30.10S VSB 1/2
TOPEKA FORBES  CLEAR     40  39  97 CALM      30.09R
$$


USA.gov is the U.S. government's official web portal to all federal, state and local government web resources and services.